Theta_e
324 325 324 325 325 326 326 325 327 327 325 324 324 322 322 322 321 322 323 323 322 327 326 326 326 326 324 324 323 322 311 294 291 293 293 294 306 320 322 321 322 325 316 296 296 295 293 290 293 294 289 291 291 293 294 290 288 290 286 280 281 277 280 281 283 283 283 285 286 287 289 291 291 289 291 289 287 286 286 287 287 287 284 284 284 284 285 287
323 323 324 323 323 323 323 324 327 326 325 324 323 322 322 321 322 323 323 322 323 326 324 324 324 323 324 323 322 319 296 293 291 291 293 304 320 324 322 323 324 323 311 294 295 293 293 292 291 289 290 292 290 293 291 291 289 285 280 281 281 278 281 284 281 284 284 285 285 286 286 291 291 287 289 289 286 284 287 286 286 287 287 284 284 284 285 285
323 324 322 323 323 323 323 323 325 326 325 324 322 323 322 322 322 323 322 323 325 324 322 323 323 322 323 322 321 318 299 293 293 291 295 316 318 320 323 322 323 321 298 297 294 295 296 295 294 293 288 290 288 291 289 289 291 283 283 280 278 281 282 282 281 283 283 284 286 286 286 288 289 288 287 287 284 283 285 285 286 286 288 285 283 283 284 284
321 323 321 323 323 323 323 323 324 324 325 323 324 324 322 321 321 322 324 324 324 324 324 322 323 322 321 321 322 304 294 291 288 292 295 314 320 323 321 321 322 311 297 297 296 297 292 291 289 291 290 289 286 286 290 289 289 285 283 280 280 279 285 284 280 281 280 285 285 285 283 287 287 285 287 285 285 283 283 284 289 288 288 285 282 283 283 284
320 321 322 322 321 322 322 323 324 324 325 325 324 324 322 322 322 322 323 323 324 323 324 323 324 323 321 321 316 297 293 286 289 292 295 317 320 321 317 322 319 297 297 297 295 291 292 293 291 288 289 289 287 288 286 286 284 286 284 281 283 280 284 284 280 280 280 281 281 282 286 286 285 285 284 284 285 285 282 286 286 290 288 285 283 283 283 283
319 320 321 321 321 322 322 322 323 324 324 323 324 324 321 322 322 322 322 323 323 323 323 323 323 322 321 318 298 298 292 282 294 292 315 316 318 318 316 317 312 296 294 292 293 290 295 290 292 290 286 288 286 286 286 283 287 285 280 282 279 280 285 282 281 281 281 282 282 283 285 283 283 284 282 282 287 287 284 287 284 286 287 285 285 283 282 282
318 319 320 321 320 322 322 324 322 323 323 322 322 321 320 320 321 322 323 324 323 324 322 323 322 321 320 310 296 294 292 291 290 294 310 315 315 312 312 306 308 297 295 294 291 295 288 289 290 286 285 285 285 284 285 287 286 286 283 281 283 278 285 281 283 279 279 282 284 282 284 285 282 286 282 282 285 288 287 286 284 285 283 285 283 283 283 284
319 320 320 320 320 320 321 321 321 322 322 323 323 323 321 321 321 323 323 323 324 324 323 323 322 320 315 296 297 289 288 292 294 294 307 312 299 297 303 293 293 292 291 291 292 292 289 289 290 286 288 286 286 285 287 287 285 286 283 283 282 280 280 279 279 279 279 281 280 281 283 284 281 283 281 282 284 283 283 283 283 281 282 282 283 283 282 282
319 320 319 319 319 319 319 321 322 323 321 322 322 322 323 322 321 322 323 322 322 322 321 323 322 320 310 293 291 289 286 292 294 293 294 293 293 292 295 296 291 292 289 287 289 292 292 289 289 287 288 286 286 288 285 286 284 284 285 281 281 283 280 280 280 279 279 282 281 283 281 278 279 280 281 283 283 282 281 282 280 281 282 281 282 283 283 282
321 320 319 318 318 318 319 321 320 321 323 322 322 322 322 321 321 321 321 323 322 323 322 322 322 317 299 294 288 286 291 295 293 292 292 292 292 293 293 292 291 292 293 289 290 290 290 289 291 289 288 287 288 287 286 286 285 285 283 282 283 282 281 281 283 281 279 282 281 283 280 282 280 282 281 283 282 280 281 280 280 280 280 280 281 281 281 281
321 319 318 318 318 318 319 319 318 319 321 320 321 322 321 321 321 322 322 323 322 322 322 322 319 305 296 290 290 286 294 293 293 292 292 293 294 293 293 292 291 291 289 289 289 290 292 289 288 288 292 289 288 286 286 287 285 283 283 283 283 281 282 280 280 281 281 284 279 282 281 280 281 283 281 282 282 280 280 279 280 280 279 279 280 280 281 281
320 318 318 318 318 319 320 318 317 317 318 320 321 320 321 320 319 321 322 323 322 321 320 321 315 295 291 291 289 289 294 294 292 291 292 294 294 294 292 293 292 293 292 292 291 289 290 291 290 293 288 291 285 287 286 288 285 284 284 285 282 280 285 281 281 280 281 283 280 281 282 281 279 281 284 282 281 279 279 279 279 279 279 279 280 281 281 280
319 319 318 318 319 318 319 318 317 318 319 322 321 321 319 319 319 320 321 321 319 320 319 320 309 299 296 291 291 292 291 290 292 291 294 292 292 291 291 291 291 292 292 291 291 291 290 291 292 291 291 286 286 286 286 286 284 286 284 283 284 281 281 283 280 280 282 283 278 282 279 277 278 278 281 283 281 279 279 279 279 279 279 280 280 281 281 282
319 319 318 318 318 319 318 317 317 318 320 320 321 318 318 318 319 320 320 321 322 321 319 318 296 294 295 288 294 295 293 295 293 293 291 293 295 293 292 293 290 288 290 291 291 290 291 290 294 292 292 289 288 291 287 283 284 284 283 281 279 280 279 283 281 280 282 283 281 285 279 279 278 283 283 282 280 279 277 278 279 279 279 280 281 281 281 281
319 318 318 320 320 320 321 319 318 318 318 318 318 318 318 318 319 320 321 321 320 320 319 310 296 297 289 290 294 295 312 295 292 291 289 293 292 293 293 294 293 289 289 290 290 290 292 292 292 287 288 288 289 288 281 281 281 281 283 279 277 280 278 281 282 280 282 283 283 284 276 281 281 281 281 280 278 278 278 278 278 279 280 280 281 281 282 282
318 318 320 320 319 318 317 317 317 317 317 318 318 318 319 319 319 319 321 321 320 320 305 301 297 292 287 289 294 302 291 291 292 291 290 293 292 293 291 290 289 289 291 292 290 291 292 293 289 287 288 288 284 278 279 282 280 280 282 278 278 279 278 281 283 279 280 282 282 283 281 280 280 281 281 280 278 279 278 278 278 279 280 281 281 282 282 283
318 318 319 319 318 317 318 317 316 317 317 318 319 319 319 319 320 320 317 313 306 306 299 297 292 295 290 291 297 290 289 290 291 292 291 291 292 292 292 290 290 290 289 292 290 291 290 289 287 289 286 284 281 281 280 275 276 276 279 279 277 279 279 279 281 282 281 282 283 279 282 280 280 280 281 281 278 279 278 278 278 280 280 281 281 282 282 282
317 317 319 317 317 317 317 317 316 316 318 318 318 317 313 318 315 316 307 304 300 299 298 296 291 291 289 293 289 289 291 288 291 291 290 291 291 291 292 291 290 289 287 290 290 289 288 289 287 285 283 281 284 280 278 274 277 278 279 278 278 277 278 280 280 282 282 283 282 280 280 281 280 280 281 279 279 279 279 279 279 280 280 281 281 281 281 281
318 319 319 317 317 317 317 317 316 317 318 318 316 319 314 311 299 297 294 295 298 291 290 289 290 285 284 288 288 289 291 292 291 291 293 291 291 291 290 290 288 290 287 286 288 289 285 287 285 282 282 281 282 282 280 280 278 281 279 278 276 277 278 280 280 281 281 281 281 279 280 279 279 279 280 280 279 280 279 280 280 280 280 280 280 281 281 281
319 319 319 318 318 318 316 317 317 317 318 307 297 298 294 291 288 294 293 294 289 292 290 291 289 289 289 288 289 292 292 292 291 291 290 291 293 291 292 291 289 288 286 288 285 286 288 284 281 281 281 280 278 280 282 280 280 280 279 279 278 277 278 279 279 280 280 282 279 278 277 276 277 277 278 278 279 280 279 279 280 280 280 280 280 280 281 281
318 318 317 316 317 317 317 317 317 318 313 296 293 292 289 288 286 284 287 289 287 289 291 289 289 289 290 288 288 290 288 289 289 290 292 293 291 291 290 289 284 288 283 285 287 289 289 284 282 283 282 281 282 281 281 281 281 283 280 279 278 277 277 279 281 281 280 281 278 277 276 276 276 277 277 277 279 278 278 278 278 278 279 279 280 280 280 280
316 317 316 316 316 317 317 317 317 317 309 297 295 291 290 291 291 291 290 286 289 290 288 289 289 288 287 289 289 289 288 287 290 291 293 294 289 289 287 285 286 285 283 285 285 283 283 284 284 284 283 282 281 281 281 282 282 279 280 276 276 277 278 279 280 280 280 282 278 276 275 275 276 276 278 277 277 277 277 277 277 278 278 279 279 279 279 279
315 315 315 316 317 317 318 317 316 312 296 295 293 293 295 298 297 296 290 285 287 290 290 288 290 285 287 290 292 292 286 286 286 289 291 292 288 288 287 285 283 282 283 283 285 281 282 280 283 283 281 283 282 280 281 280 279 279 277 277 276 276 277 275 279 279 281 278 277 278 277 276 276 277 277 277 277 277 278 278 278 278 278 278 278 279 279 278
315 315 315 316 317 318 318 315 311 303 296 293 294 296 297 296 296 298 291 287 285 289 291 291 289 287 288 290 291 289 288 289 288 290 292 289 287 288 287 284 282 283 285 281 283 282 279 283 280 279 280 282 282 280 281 279 279 277 278 277 276 276 276 277 277 277 278 278 278 276 274 274 274 275 276 277 278 278 277 277 277 277 277 277 278 279 279 278
314 314 315 316 317 317 316 310 298 297 295 294 295 297 295 296 296 299 291 284 283 288 293 292 288 289 291 295 291 292 288 289 288 288 288 289 288 287 288 286 285 282 284 281 281 282 280 282 281 281 279 279 282 279 278 280 276 276 276 279 278 277 280 278 276 277 275 272 277 277 270 268 273 274 274 276 276 276 276 276 275 276 276 277 277 277 278 279
314 314 315 316 316 314 313 298 292 296 294 292 295 299 296 293 293 294 285 280 280 284 289 289 294 290 293 290 290 286 291 289 291 289 292 289 291 289 287 286 284 284 282 282 283 281 283 281 281 282 280 280 279 278 279 279 276 276 277 278 278 277 276 276 276 276 267 270 275 276 273 266 273 274 274 275 274 275 275 275 275 275 276 276 276 277 278 278
314 314 315 316 314 312 295 292 291 295 292 293 299 297 295 297 296 296 290 271 273 286 286 292 292 290 293 289 289 287 281 283 289 289 287 290 291 292 285 279 284 285 284 282 281 281 282 281 280 279 279 278 279 279 280 276 275 277 278 276 276 279 278 277 277 275 273 274 277 277 275 268 266 273 275 274 274 274 274 275 275 275 275 275 276 277 277 277
315 315 314 315 314 308 297 293 293 292 291 292 294 294 297 296 295 292 280 268 271 288 286 287 292 294 292 290 288 286 287 287 286 290 289 289 291 287 285 284 283 283 284 282 275 280 282 283 280 280 278 278 279 279 280 279 279 277 278 277 278 278 277 276 275 274 273 273 272 272 276 271 267 271 274 275 273 273 273 274 275 275 275 275 276 276 277 277
315 315 315 314 314 309 296 294 292 294 294 294 293 295 297 292 290 284 273 271 282 282 296 289 298 291 287 290 288 285 287 288 286 289 290 291 291 289 284 285 283 282 281 282 279 278 282 282 282 281 281 279 280 279 278 279 278 279 278 277 276 276 275 275 272 272 268 269 266 270 274 268 268 272 273 274 273 273 273 274 275 275 275 275 276 276 277 277
315 314 316 314 302 297 296 293 295 293 294 293 295 297 295 294 288 279 274 270 287 278 289 289 287 284 283 282 282 284 285 285 286 287 288 287 289 288 286 288 283 282 284 280 281 281 281 284 286 281 280 281 279 278 277 277 278 279 278 278 275 273 272 271 269 266 266 263 266 271 272 272 265 271 273 272 273 273 274 274 275 276 275 275 275 276 276 277
314 314 314 310 296 296 292 289 291 294 294 296 296 295 293 284 275 267 269 275 285 285 284 284 282 283 281 281 279 282 283 281 284 283 284 286 286 284 284 284 282 278 276 277 278 279 281 282 282 280 283 281 280 280 278 278 277 278 275 275 275 273 271 271 263 264 262 258 263 271 272 272 264 268 274 274 273 274 275 273 274 275 274 275 276 276 277 277
313 313 312 301 298 293 293 291 293 297 296 295 295 288 284 280 274 271 273 284 279 280 281 280 281 280 281 281 279 280 279 280 281 280 280 278 277 279 279 276 276 269 268 274 275 277 280 280 280 280 284 280 279 277 277 276 276 276 276 273 270 267 263 263 259 266 261 262 273 270 271 270 271 271 273 273 274 275 275 276 275 275 274 275 276 277 277 278
312 312 308 301 299 293 296 291 295 297 297 293 287 283 277 268 270 270 272 276 278 282 280 282 281 280 279 279 279 279 280 280 281 280 281 279 277 279 279 279 278 277 274 275 273 275 274 276 278 280 280 281 280 277 275 274 276 276 274 264 263 262 255 258 259 259 260 268 270 271 272 270 271 272 273 272 274 276 276 276 276 275 275 275 276 276 277 277
311 306 298 299 296 295 294 294 293 295 293 291 292 285 276 272 272 284 274 275 280 279 281 279 279 278 278 280 279 278 278 280 280 280 279 279 276 276 276 278 279 277 274 273 275 271 267 270 276 279 279 279 279 278 278 277 276 274 274 274 267 265 265 261 257 263 266 267 269 268 268 261 267 270 273 274 275 275 275 275 275 275 275 274 275 275 276 277
310 299 296 294 294 296 294 294 294 293 289 287 282 275 271 270 269 271 272 274 277 279 280 280 279 276 278 275 277 278 280 277 279 277 278 277 276 275 277 278 278 278 276 273 270 270 275 274 277 279 279 277 280 279 276 275 275 277 274 275 269 268 267 266 259 259 259 261 262 264 264 266 269 274 275 274 275 275 276 275 275 274 274 274 274 274 275 276
306 297 299 293 295 295 292 293 291 294 291 283 276 274 271 272 274 275 277 281 279 279 280 278 277 273 273 272 274 275 281 278 278 277 276 276 277 278 279 276 278 278 275 272 270 270 271 272 277 277 279 278 278 278 279 278 269 275 276 270 273 274 274 265 266 267 266 259 264 258 269 271 273 274 274 274 274 273 273 274 273 273 273 273 273 274 274 275
293 294 298 292 292 293 290 293 294 289 287 282 275 272 273 277 279 277 284 281 280 280 276 274 273 275 273 273 272 272 277 278 277 276 276 277 277 278 278 279 279 277 278 277 269 274 269 274 276 277 279 278 276 277 277 275 277 272 266 272 275 274 273 268 264 260 254 260 263 265 265 262 267 261 273 273 272 273 272 272 273 273 273 273 274 273 274 274
295 292 294 292 294 292 294 293 293 287 284 282 274 285 279 280 281 281 281 281 281 280 275 276 275 278 272 273 275 273 278 276 279 276 276 277 277 280 277 277 279 278 278 277 274 272 275 268 273 275 276 278 276 279 276 278 277 279 276 275 274 265 267 265 262 259 260 259 261 263 260 261 264 265 271 272 271 271 272 272 272 272 272 273 273 273 275 275
286 290 291 294 294 292 293 289 289 285 282 280 272 280 281 279 280 280 280 283 280 280 276 276 274 275 277 272 273 273 273 274 275 277 273 277 274 280 279 279 280 278 277 278 276 275 275 267 272 275 277 277 277 278 269 271 275 276 277 276 274 273 262 263 266 261 263 261 260 262 260 267 265 263 271 273 270 272 272 271 271 272 272 273 273 274 274 275
291 288 285 294 292 292 292 291 291 285 280 278 271 275 280 281 283 281 280 282 281 278 277 277 278 275 275 277 277 274 275 276 277 276 277 277 278 280 278 278 278 277 277 277 277 277 274 274 264 272 275 276 273 274 275 275 268 270 268 266 271 265 270 268 265 265 268 259 259 256 261 259 268 274 273 273 272 272 272 271 272 272 272 273 274 274 275 276
284 285 286 292 292 292 290 292 284 277 275 279 278 280 280 282 282 282 280 281 282 283 279 279 277 277 278 276 275 278 275 274 275 274 276 276 277 273 277 278 278 277 277 277 274 273 268 271 267 270 274 272 273 274 276 275 275 273 271 271 271 266 267 265 267 260 259 263 261 257 264 258 270 275 274 273 272 272 272 272 272 272 272 273 274 274 275 276
287 279 286 292 291 291 289 283 274 276 275 274 278 282 285 289 281 281 281 281 280 282 281 280 279 278 277 279 278 276 277 274 275 273 274 275 279 277 277 272 276 276 275 273 273 276 275 270 271 268 272 276 276 275 275 275 275 275 275 274 269 266 263 263 261 262 262 262 260 261 259 263 271 273 273 272 272 272 273 272 272 272 273 273 274 274 275 276
280 285 292 292 290 292 286 274 276 276 274 280 281 282 280 281 279 281 282 281 281 281 280 281 282 279 278 280 279 277 277 274 276 276 276 277 276 277 275 272 274 276 276 272 274 277 282 268 264 270 273 272 273 274 275 273 276 275 274 271 272 271 269 265 264 260 263 261 264 260 261 265 273 274 273 272 272 272 272 271 273 273 273 273 274 274 274 274
283 284 288 292 290 289 282 277 277 277 277 280 281 283 281 283 281 280 280 280 280 280 280 279 280 280 280 278 277 279 279 273 277 278 277 276 277 276 274 275 275 278 276 274 272 277 269 269 271 262 262 268 271 270 271 273 272 271 272 269 267 265 262 260 261 259 265 260 266 262 259 256 272 273 274 273 272 272 272 272 273 272 273 273 273 273 273 273
284 283 284 287 292 290 281 276 274 271 277 277 278 278 278 282 280 282 282 282 280 279 278 279 280 280 279 279 279 278 278 278 275 276 275 273 275 277 274 274 273 278 276 278 284 279 272 269 268 264 262 263 263 262 265 268 267 272 271 270 267 268 265 266 267 260 261 262 266 261 260 269 272 274 273 272 271 271 272 272 273 273 273 273 273 273 273 273
283 280 282 281 285 285 282 279 279 276 271 274 274 277 278 279 281 279 280 283 280 280 279 279 279 279 278 278 278 277 278 279 278 272 271 274 273 276 276 273 274 278 278 282 277 273 267 269 272 267 264 266 269 271 273 276 272 267 268 269 267 264 262 262 261 260 265 259 261 265 268 269 272 273 272 273 272 271 271 272 272 272 273 273 273 273 272 272
279 277 277 276 278 283 279 280 279 279 277 277 275 278 275 277 278 281 280 281 281 281 281 280 281 280 279 278 276 276 276 277 277 275 273 271 270 273 271 274 276 278 284 282 276 266 265 267 266 270 269 272 274 274 275 275 271 272 269 268 265 264 263 264 266 265 265 263 266 267 267 266 270 273 273 271 271 271 272 272 272 273 273 273 273 272 273 270
281 281 280 283 283 280 275 280 279 279 279 279 276 279 276 277 277 276 280 282 281 279 280 279 278 278 280 280 279 272 273 275 274 272 271 270 271 273 275 277 277 279 279 276 270 272 266 268 267 266 266 267 271 273 274 272 272 272 270 269 267 265 265 265 263 265 269 266 266 269 268 266 271 272 270 270 271 271 271 272 272 272 273 273 272 270 269 269
281 281 283 283 281 278 279 281 280 279 280 278 279 280 276 278 277 280 279 279 278 280 280 275 278 278 279 278 278 273 273 272 270 270 269 270 269 272 268 272 279 274 275 274 273 263 269 264 264 264 269 272 272 271 271 272 270 270 265 268 269 267 265 265 266 267 268 268 270 269 268 268 270 270 270 271 272 272 272 272 272 272 272 272 269 268 268 268
283 281 281 280 279 276 277 278 280 278 280 280 275 280 279 279 279 279 280 280 276 279 281 280 279 278 278 277 278 275 275 277 276 272 271 272 271 269 269 271 271 273 274 273 270 272 271 265 272 264 266 270 270 268 269 271 270 269 270 268 268 267 268 267 267 268 267 265 266 267 266 266 269 270 271 272 272 272 272 272 272 272 272 270 268 268 269 268
284 281 284 284 277 279 278 275 279 278 276 278 276 279 282 279 280 280 280 280 280 279 280 280 279 278 277 277 277 277 278 278 278 278 277 276 271 273 272 271 277 271 270 268 266 266 268 269 260 259 266 267 269 269 272 270 267 267 268 267 268 268 265 267 264 268 266 265 267 264 263 265 270 271 271 271 271 271 271 271 271 271 271 268 268 268 268 267
282 285 279 280 279 281 279 275 277 276 276 279 281 281 280 282 279 279 278 279 277 278 281 281 279 280 276 276 275 278 279 278 279 279 278 278 277 278 276 277 277 274 269 268 265 267 263 263 264 261 264 259 266 269 271 269 267 262 262 268 269 268 269 269 268 269 270 270 265 261 266 268 270 271 269 270 271 271 271 271 271 271 269 268 267 267 267 266
Wind_Speed
8 8 8 7 7 7 8 7 6 6 7 7 7 8 8 8 8 7 7 7 9 7 8 8 8 9 10 9 9 9 6 3 3 2 3 3 5 7 8 10 11 9 4 3 7 6 4 5 7 11 4 1 2 1 1 4 2 1 2 3 2 4 3 5 6 9 2 0 1 3 5 4 2 0 0 1 2 1 0 1 3 2 0 1 1 0 3 5
8 7 7 7 7 7 7 7 6 6 6 6 7 8 8 8 9 7 9 9 8 8 9 9 8 9 9 8 8 6 5 3 2 3 1 3 4 7 10 12 10 6 1 3 5 2 3 5 4 5 3 1 2 0 1 0 1 2 2 2 8 5 6 6 4 6 2 2 1 2 2 5 4 4 1 1 1 1 1 3 1 4 2 3 5 4 6 7
8 7 7 6 6 6 6 6 7 6 7 7 8 8 8 9 9 8 9 9 8 9 9 9 9 10 9 9 7 5 2 2 2 1 1 5 5 9 9 10 9 1 0 0 1 2 1 1 0 1 3 1 6 2 2 0 0 1 4 4 5 7 3 4 3 4 2 3 1 3 0 4 2 1 0 2 2 1 5 4 1 4 8 4 2 3 5 5
8 7 7 6 6 5 5 6 6 7 7 7 8 7 9 9 9 9 8 8 9 9 8 10 9 9 9 8 7 3 1 3 1 1 2 5 8 9 8 8 4 3 3 3 2 2 3 5 3 2 1 1 2 1 1 1 1 1 2 4 3 3 1 2 6 2 3 0 1 3 1 0 2 2 0 1 2 5 6 6 6 8 10 5 5 6 5 6
7 7 7 7 7 6 6 6 6 7 7 7 8 7 9 9 9 9 8 8 8 9 9 8 8 8 8 7 5 0 2 2 1 1 4 7 9 9 8 4 3 2 1 4 4 4 5 2 1 3 2 3 1 1 1 1 1 4 5 1 2 1 1 1 4 3 4 2 6 2 3 3 0 1 1 3 4 9 1 3 8 9 5 7 8 7 5 6
6 6 6 7 6 7 6 6 6 6 6 7 7 7 8 8 8 7 6 7 7 7 8 8 8 8 8 5 2 1 2 2 0 1 3 8 8 7 6 5 4 5 4 3 2 2 1 3 1 1 1 0 2 4 0 0 0 3 2 1 3 2 0 1 1 2 3 2 3 3 2 2 1 1 0 3 8 5 2 1 1 3 1 5 6 8 6 7
6 6 6 6 6 6 6 6 6 6 6 6 6 7 7 7 7 6 5 5 6 6 6 6 6 6 9 2 3 5 1 3 1 4 7 9 8 8 3 6 6 4 2 1 3 0 2 1 1 1 2 1 1 1 0 0 1 1 2 0 2 3 0 2 0 3 2 8 1 2 0 1 2 1 1 2 9 8 4 0 3 0 1 7 9 8 11 12
6 5 6 5 6 6 6 6 6 6 7 7 6 7 9 9 7 6 6 6 5 5 6 6 5 4 4 1 1 2 1 1 3 2 7 8 7 9 3 4 5 3 8 4 0 1 1 1 1 3 0 3 2 4 0 0 1 2 2 1 0 1 1 0 2 1 1 1 0 2 0 0 2 0 2 6 5 7 7 3 0 4 5 4 6 7 5 5
5 5 5 5 5 5 5 5 5 5 7 8 8 8 8 10 9 8 7 6 6 6 8 7 6 4 4 3 2 3 2 2 4 4 6 7 8 8 5 2 6 4 3 2 2 1 1 1 1 4 3 0 1 2 1 1 5 1 1 1 0 0 3 0 1 1 0 0 1 1 2 3 2 1 2 5 4 6 4 3 2 5 5 4 4 2 1 2
6 6 6 7 7 8 8 8 8 8 8 10 10 11 11 11 10 9 9 6 5 5 6 6 8 4 4 2 3 4 2 3 3 2 4 4 6 6 9 2 3 3 1 3 4 6 2 2 1 3 3 2 1 1 1 1 2 3 1 0 1 1 2 2 1 1 0 0 1 1 1 1 1 2 3 1 2 8 6 5 4 4 5 4 4 3 3 4
7 6 7 7 8 8 8 9 10 9 9 11 11 11 12 12 11 9 8 6 5 4 4 5 5 2 1 2 1 2 2 3 0 3 3 4 7 8 2 6 1 2 4 2 4 1 1 2 3 2 1 1 3 1 0 0 2 3 1 1 1 7 0 1 1 1 0 0 2 2 1 0 3 1 3 5 7 5 6 7 7 6 5 5 6 6 3 4
6 6 6 7 7 7 8 9 10 10 10 10 11 11 11 11 12 10 8 8 6 3 4 3 3 3 3 3 1 2 2 3 2 2 3 7 4 1 4 1 0 2 3 1 0 1 2 2 4 0 1 0 0 0 1 0 2 0 0 2 4 6 1 4 0 1 0 1 3 2 1 3 2 3 1 6 6 3 8 8 7 7 6 6 6 7 7 4
8 7 8 7 7 8 8 10 10 11 10 9 10 10 11 11 11 10 8 7 2 3 4 2 3 2 1 3 3 7 2 2 1 5 6 4 1 2 1 1 2 0 1 3 0 1 3 5 4 5 0 2 1 0 1 3 1 0 4 1 5 6 4 3 1 1 1 1 1 1 3 3 2 4 6 8 9 4 11 8 6 6 7 6 7 9 10 8
9 8 8 9 9 10 10 11 12 12 10 10 10 12 12 12 10 9 7 5 7 5 2 3 4 3 1 2 4 3 2 0 2 7 6 7 6 3 0 1 2 3 2 1 1 4 4 2 7 5 2 2 0 0 2 3 3 0 1 3 0 3 3 2 1 0 3 0 1 1 3 7 2 2 9 10 5 4 6 6 6 7 8 9 9 11 12 11
8 9 9 9 10 9 9 11 12 13 13 13 13 12 13 12 10 7 6 4 2 1 5 5 2 1 2 3 4 8 2 1 7 4 3 6 5 4 6 9 6 5 2 1 2 1 4 4 3 3 1 0 0 0 2 3 4 2 2 3 3 2 4 6 3 0 3 1 2 2 2 7 2 4 8 9 5 9 8 6 6 7 8 9 10 12 13 11
8 8 8 9 9 11 11 11 12 13 14 14 14 14 12 9 8 5 4 3 3 6 3 1 2 4 2 2 1 0 4 3 5 4 2 2 3 1 4 5 2 3 2 1 2 3 4 8 7 1 1 0 5 4 3 4 2 4 1 4 2 1 5 6 1 1 3 1 2 2 6 3 0 3 8 8 6 9 10 7 6 8 8 9 9 10 10 12
9 9 10 9 10 11 11 12 13 14 15 14 15 11 8 6 5 4 4 5 3 0 1 1 1 0 1 3 1 2 2 2 4 3 6 2 1 0 4 5 2 5 4 1 3 1 5 4 1 1 4 4 1 3 2 3 5 3 2 2 2 1 1 3 3 1 3 1 3 3 2 4 2 7 9 9 4 8 10 7 6 6 7 8 9 10 10 11
9 9 9 10 10 11 12 12 13 14 15 14 9 6 4 7 3 5 5 5 1 4 5 2 2 2 1 4 2 4 1 5 6 7 3 2 4 4 2 1 1 2 2 1 3 1 3 1 2 1 2 3 1 1 2 6 2 2 0 2 5 1 3 5 2 1 2 2 3 1 3 8 5 9 10 7 4 9 8 7 7 7 8 8 9 10 10 11
9 9 9 11 11 12 12 12 13 13 14 13 4 3 2 3 4 4 5 4 0 3 1 3 5 1 3 5 4 6 4 4 2 3 5 5 3 1 1 1 3 0 0 2 2 0 3 2 3 2 3 1 2 6 7 6 3 2 3 3 2 3 3 3 4 2 0 2 2 3 5 5 9 10 8 8 5 9 7 6 7 7 7 8 9 9 10 10
10 10 10 10 9 10 11 11 13 13 12 9 7 1 2 5 6 1 7 7 4 0 1 1 0 3 3 4 5 7 4 2 2 2 3 1 2 3 1 1 2 5 2 2 3 2 1 1 3 5 7 6 3 4 4 2 3 2 2 1 4 4 5 4 3 3 1 0 3 2 1 5 6 7 5 4 5 9 7 7 7 6 7 8 9 10 10 11
10 10 10 11 11 11 11 12 13 11 7 2 3 5 2 0 2 3 4 1 0 1 1 1 2 1 3 2 3 5 5 3 1 3 3 1 1 1 2 3 4 0 2 1 1 2 1 2 5 6 4 3 2 2 4 5 2 1 1 2 5 2 7 2 0 3 3 1 2 1 2 5 4 4 5 4 7 8 5 6 7 7 7 8 10 10 9 7
10 10 12 11 11 11 11 10 10 9 5 5 7 4 1 1 1 1 1 2 1 0 1 2 1 2 3 4 3 2 3 1 2 5 4 6 4 3 3 4 1 1 2 1 2 2 1 5 2 1 1 4 4 3 1 1 1 2 2 2 2 5 4 3 2 2 1 1 5 2 2 3 4 4 6 6 4 3 4 4 3 6 7 7 7 8 8 9
12 11 13 11 12 10 9 8 5 7 5 6 3 2 1 1 2 1 1 2 1 1 0 2 2 3 3 3 0 0 2 3 2 5 6 6 5 4 2 2 3 2 1 4 2 1 5 4 2 1 2 1 1 2 1 1 2 1 0 1 6 2 3 5 1 3 0 1 2 0 2 2 1 4 7 6 4 3 5 7 7 5 7 6 5 5 8 8
12 12 13 13 12 10 8 6 3 7 5 3 4 1 0 1 2 1 1 0 1 3 0 0 0 0 2 2 1 2 1 1 1 7 5 4 2 2 1 2 1 1 1 2 2 4 5 1 1 2 1 1 1 1 0 1 4 2 2 2 3 2 2 5 3 3 3 1 1 1 3 1 2 2 4 4 4 7 6 7 8 7 5 4 5 7 5 8
12 13 13 13 13 10 8 4 7 1 1 1 2 0 1 2 2 0 1 1 1 1 2 1 3 0 2 1 3 2 0 0 2 2 2 3 4 2 0 0 0 0 0 1 2 1 5 1 0 1 2 2 0 3 1 2 4 4 4 5 3 1 1 1 2 5 6 3 1 2 3 3 2 3 3 3 4 5 3 7 6 5 5 5 7 6 6 7
12 12 14 14 14 12 5 3 1 1 1 1 0 0 2 2 1 1 4 3 0 2 3 1 1 1 1 1 3 1 0 0 1 1 1 1 2 1 0 1 1 1 0 0 1 1 1 1 1 1 2 2 2 1 1 2 1 0 1 1 2 2 2 0 3 3 3 0 2 2 2 8 1 1 3 3 4 4 3 5 4 4 4 4 5 4 5 6
13 13 13 12 14 11 4 1 0 1 2 1 1 2 2 2 0 2 1 4 2 0 1 1 1 1 2 2 1 0 1 2 1 2 2 3 1 1 1 3 2 1 1 1 2 0 0 2 3 4 2 1 2 1 0 3 2 2 1 4 3 1 2 1 0 2 5 0 4 0 1 3 5 3 3 4 5 3 3 3 3 3 4 4 4 4 5 5
11 12 11 10 9 10 1 2 1 2 0 1 0 2 1 1 1 2 3 2 1 1 1 3 0 2 3 4 6 3 1 6 2 0 0 2 0 3 3 0 0 1 2 1 2 1 1 2 1 1 2 1 1 1 1 1 1 1 2 3 1 0 1 0 1 2 0 2 7 2 0 0 4 2 3 5 6 2 3 1 1 3 4 4 5 5 5 5
12 11 10 8 2 7 5 2 3 1 1 1 1 0 1 1 3 4 4 1 1 2 2 0 1 1 8 3 3 2 2 4 2 3 4 1 3 1 1 0 1 2 1 1 3 1 1 1 0 1 1 1 1 2 1 3 1 0 2 3 3 4 5 2 1 2 2 2 6 2 2 3 7 2 5 1 2 7 5 4 2 1 4 3 4 4 5 4
11 11 11 9 3 3 4 2 3 0 1 1 1 1 2 2 2 1 2 2 1 1 0 2 3 6 3 3 1 8 5 3 0 6 3 1 6 6 2 1 2 1 1 5 1 3 1 3 3 2 0 0 0 1 2 1 1 1 1 1 2 6 3 3 6 2 3 0 7 2 2 2 4 6 10 9 6 4 5 2 1 1 3 4 4 4 3 4
10 10 10 6 4 1 1 1 1 0 2 1 1 3 2 6 2 3 1 2 1 2 2 4 2 4 6 6 6 5 2 3 8 5 4 6 9 5 4 1 3 3 4 5 1 4 2 0 0 1 1 1 0 0 1 1 1 1 2 2 5 1 5 2 3 4 1 4 2 2 2 1 2 4 2 2 4 4 12 7 5 3 3 3 3 3 3 3
9 7 7 6 1 0 2 2 0 2 1 2 2 2 2 2 5 3 1 4 1 3 2 4 1 1 4 1 2 5 4 6 2 5 5 3 3 9 8 3 4 4 4 4 5 6 2 2 2 4 2 3 1 2 2 5 4 3 0 5 4 5 7 2 3 2 2 3 1 1 1 1 6 1 3 8 7 0 4 7 7 6 4 4 4 3 2 2
9 5 5 4 2 1 1 1 4 3 2 2 3 3 1 4 0 2 2 4 1 1 3 2 3 4 4 1 4 4 2 3 4 2 1 0 3 1 0 3 1 1 3 2 3 8 4 2 3 2 2 2 0 4 5 3 1 7 2 2 3 4 3 3 5 1 4 4 2 1 2 2 1 0 3 6 6 1 8 7 6 5 5 4 3 3 2 2
6 3 1 1 1 1 2 3 4 4 2 2 1 3 7 3 1 0 1 2 2 2 2 2 5 3 3 3 3 4 4 0 5 4 3 1 5 4 5 3 4 5 2 1 4 1 4 4 1 1 1 1 1 1 0 2 2 2 2 1 2 3 1 5 2 3 5 7 4 3 2 2 1 1 5 3 3 7 7 8 6 5 4 3 2 3 2 2
1 4 1 1 2 1 2 2 3 3 3 2 9 6 3 1 1 1 1 3 2 3 1 1 2 2 2 2 4 1 1 2 2 3 6 4 3 1 2 5 5 2 0 1 1 1 1 6 4 1 1 1 2 0 1 2 2 0 1 3 4 2 4 4 4 2 3 4 5 1 2 1 0 1 2 3 6 8 7 6 4 4 3 2 3 2 0 0
1 2 0 1 1 0 1 2 3 2 2 7 6 6 2 1 1 1 1 1 0 2 7 3 3 4 3 3 1 3 4 0 4 2 1 2 1 0 0 1 2 2 3 1 1 1 4 3 1 5 1 1 1 0 1 1 2 1 1 0 1 2 2 2 2 1 1 3 4 2 1 0 1 1 3 3 6 5 5 4 3 3 1 2 2 1 1 2
1 3 0 2 1 1 1 2 3 3 8 8 6 1 1 1 0 1 2 0 1 0 2 4 4 3 3 3 2 5 3 1 1 3 2 0 0 1 1 1 2 1 0 1 3 1 1 10 3 2 0 0 0 1 1 3 1 1 2 2 0 2 3 3 2 3 3 1 6 2 1 2 1 3 2 1 3 2 2 3 2 1 1 3 1 1 2 3
0 1 0 1 1 2 1 2 2 6 7 8 5 3 0 1 0 0 1 1 0 0 2 2 1 4 1 1 5 3 7 2 7 3 1 1 0 1 3 0 1 2 2 2 1 1 1 6 5 1 1 4 1 0 2 1 1 0 1 1 1 2 2 3 3 3 4 4 5 4 1 3 4 3 4 8 7 5 3 2 1 1 1 0 2 2 3 3
3 2 0 1 1 2 1 3 7 7 5 9 0 2 1 1 1 0 4 2 1 0 1 1 0 2 1 0 2 1 2 3 3 2 2 1 2 1 1 1 0 1 2 1 0 1 1 1 7 1 0 2 2 1 3 3 2 1 0 1 0 2 3 1 1 2 5 6 5 7 4 4 2 2 10 10 6 6 4 2 2 1 1 1 2 3 3 4
1 1 2 0 4 2 1 3 7 9 9 5 2 0 1 0 1 1 0 1 0 1 0 0 0 1 1 1 1 2 2 0 0 2 1 1 0 1 2 3 0 3 2 1 0 0 1 1 3 4 3 2 2 2 0 0 2 3 3 2 1 1 3 3 0 1 3 2 2 2 7 2 3 1 4 7 5 4 4 3 2 2 2 2 2 2 3 5
1 2 2 2 7 1 3 13 12 6 6 0 1 1 0 0 1 1 3 4 0 1 1 1 1 0 1 3 2 0 1 1 0 1 0 1 1 2 1 1 0 3 2 1 2 2 1 0 4 6 8 3 4 1 1 1 1 1 2 0 2 1 4 4 7 2 2 1 3 1 10 2 2 1 2 4 3 3 3 4 2 2 3 3 3 3 4 5
1 1 3 3 8 3 4 8 3 0 4 3 1 0 0 2 0 2 1 1 1 0 2 1 0 0 0 0 1 1 0 2 0 1 1 1 0 1 2 3 0 0 1 1 0 1 1 1 1 6 5 8 5 4 1 1 2 1 2 0 2 2 4 1 1 3 2 2 2 2 0 7 1 2 3 4 3 3 3 2 1 2 3 3 3 4 4 5
4 0 4 4 5 4 11 5 1 5 3 0 1 0 0 1 1 1 0 1 0 1 0 1 0 0 1 0 0 1 1 1 2 1 0 1 1 0 2 2 2 3 1 1 1 0 4 0 2 6 8 4 2 1 1 2 1 1 3 2 1 3 1 5 4 3 2 2 1 2 1 6 1 1 1 3 1 2 1 2 2 3 3 4 4 4 5 6
1 0 4 3 6 5 7 2 2 1 0 1 1 0 0 0 0 2 1 1 1 2 0 1 1 1 0 0 0 0 0 2 2 0 1 0 1 2 2 1 3 1 1 0 1 2 1 2 2 4 4 6 6 5 1 2 3 3 1 2 1 3 4 1 3 0 0 4 5 3 5 2 1 1 1 1 1 1 1 2 1 4 5 4 5 5 5 5
2 1 0 8 11 10 4 2 5 3 0 1 0 3 4 0 1 0 0 1 0 0 0 1 0 1 0 0 0 0 2 1 3 0 0 1 1 0 2 2 3 0 1 3 2 2 1 2 1 2 4 6 6 6 6 7 4 3 1 0 1 1 4 1 2 0 1 2 2 2 5 4 2 2 2 2 2 2 3 3 3 3 4 6 5 5 4 4
1 1 5 6 8 7 5 1 5 6 3 0 3 1 1 2 1 2 2 0 0 0 0 1 0 1 1 2 2 1 1 1 2 3 3 1 1 1 1 3 1 0 3 2 2 1 1 0 1 3 5 5 7 6 2 2 3 3 7 4 7 2 1 2 4 3 4 2 1 6 2 6 7 1 3 6 0 3 5 5 4 5 5 5 5 5 4 3
2 4 1 1 5 8 4 5 3 2 1 1 2 0 5 1 3 1 3 1 0 0 0 1 1 2 2 2 1 2 1 2 1 0 1 2 2 2 3 1 3 1 4 1 1 2 2 1 1 0 5 7 6 7 5 2 4 5 4 6 0 2 0 3 3 4 3 3 8 1 1 4 8 6 5 5 4 4 5 6 7 8 8 8 8 4 5 3
2 1 1 1 3 2 4 4 5 4 2 1 1 0 1 2 3 1 2 1 0 0 0 0 3 1 0 0 0 1 3 3 1 1 2 1 2 5 2 1 2 5 3 1 1 1 1 0 2 3 9 5 8 10 7 3 3 2 3 4 4 1 1 4 5 3 1 3 7 4 0 4 9 5 3 3 5 6 7 7 7 7 8 8 6 5 4 3
3 2 1 2 1 0 1 1 2 4 6 3 1 2 1 3 3 0 1 3 1 1 2 1 3 3 1 1 1 1 1 5 5 2 2 3 1 3 3 1 0 4 2 1 3 1 2 1 3 2 6 7 5 2 1 1 2 0 2 1 1 1 0 2 3 2 2 3 4 6 6 9 6 2 3 5 4 5 6 6 7 8 10 8 4 4 4 5
1 1 0 5 6 3 1 1 0 3 5 2 2 2 0 1 2 3 1 0 2 1 0 1 4 5 2 1 1 0 2 2 3 4 0 2 5 1 1 2 2 3 5 1 1 1 1 3 4 0 4 7 5 3 1 2 1 4 2 2 2 0 1 1 0 0 1 2 3 6 7 9 2 1 3 5 4 4 7 9 10 8 10 9 7 6 8 9
0 0 4 6 4 3 1 3 2 2 2 6 5 1 1 1 1 0 2 0 0 1 1 2 2 4 1 1 1 4 4 3 3 6 3 2 3 2 0 2 2 3 4 2 2 3 3 3 2 2 4 7 2 6 10 4 1 1 1 5 5 4 3 2 2 2 2 7 7 6 7 5 1 4 4 3 5 9 11 11 10 10 11 5 6 7 9 8
2 0 2 4 4 2 2 1 1 2 4 1 0 1 0 1 1 0 1 1 0 1 1 0 0 0 3 2 3 3 1 3 4 4 3 4 1 2 1 1 0 1 2 1 0 1 0 1 2 2 2 4 5 5 11 8 2 2 2 3 2 3 1 2 2 2 5 1 5 5 7 1 3 4 9 10 9 10 10 8 10 14 6 3 6 8 8 9
Wind_Direction
18 17 16 12 11 8 6 2 353 354 350 345 346 356 357 352 350 343 339 335 338 338 342 341 342 340 349 347 350 351 357 87 34 32 50 240 226 262 301 308 313 322 12 18 8 39 346 11 5 343 29 45 315 86 287 47 48 57 128 121 227 202 154 210 182 189 204 101 229 174 206 148 241 278 260 101 27 44 313 249 290 308 52 342 287 21 127 129
16 14 13 14 12 8 360 356 348 344 340 337 344 350 352 350 347 338 341 335 332 337 341 338 339 339 343 344 351 4 56 59 66 60 103 277 305 315 317 314 316 325 347 27 44 46 43 344 339 29 41 114 330 91 2 247 66 103 115 113 227 179 237 159 200 192 124 258 181 212 178 182 217 147 252 134 278 354 257 271 323 281 290 55 45 90 120 132
13 7 9 6 7 1 353 347 341 338 337 339 345 346 348 347 344 341 338 335 332 335 338 333 336 337 340 345 337 4 15 11 37 26 275 346 332 321 318 325 330 150 130 352 259 128 99 240 282 41 13 131 6 189 42 284 87 221 121 226 246 211 233 215 180 196 217 131 113 160 200 160 242 157 173 202 226 65 220 228 286 240 251 193 101 122 133 139
9 4 0 356 353 349 346 339 335 338 333 338 339 341 344 343 342 342 334 331 335 331 327 331 331 335 339 342 339 339 57 50 40 266 278 320 322 319 326 338 6 91 101 66 147 109 123 78 57 67 51 70 296 33 184 240 80 245 99 196 231 204 144 230 183 217 198 159 143 142 69 182 274 219 115 190 334 276 264 225 197 223 231 190 175 159 157 149
6 4 354 350 348 346 342 339 337 335 333 335 336 338 341 338 340 338 335 332 331 327 324 323 326 330 337 344 348 73 57 52 275 249 259 320 324 326 335 357 65 99 121 147 80 45 69 96 93 39 84 232 352 20 253 13 138 112 205 201 163 146 252 261 185 169 126 129 94 110 120 223 76 63 127 154 223 257 217 267 211 229 226 148 174 181 160 163
1 358 355 348 343 342 341 339 338 333 333 330 326 328 332 331 332 328 324 320 315 318 319 322 327 331 331 3 57 68 67 355 218 294 324 328 326 330 351 13 66 111 97 55 100 50 106 0 69 15 356 59 216 172 261 143 27 200 313 258 203 195 166 343 162 199 121 115 124 130 222 74 59 250 174 175 217 240 212 357 245 250 281 181 138 147 164 173
2 360 354 345 343 336 328 326 329 327 316 309 313 329 329 329 323 322 305 309 317 314 325 324 328 332 322 28 49 80 90 266 17 266 356 335 333 338 40 58 77 76 79 71 15 220 38 61 86 216 103 39 289 189 259 325 343 139 236 267 256 188 166 79 177 101 134 115 214 201 79 134 91 315 102 268 247 259 298 193 44 2 74 121 136 171 175 185
2 352 347 343 339 330 326 322 316 320 315 311 309 318 334 335 333 319 316 322 321 315 331 334 341 335 360 61 69 332 33 262 267 341 340 336 353 342 104 50 69 82 57 75 332 24 136 54 255 139 81 171 222 154 335 193 15 154 282 219 232 139 241 340 114 76 140 52 84 96 82 294 180 229 29 265 303 318 308 285 95 91 92 94 132 172 184 179
359 356 346 347 339 334 330 323 312 306 330 336 335 330 326 335 333 328 323 330 331 331 334 339 348 357 105 84 83 18 323 241 217 308 356 350 348 3 44 10 16 84 125 61 8 134 142 266 111 179 271 189 192 143 326 149 305 188 220 100 357 68 323 118 88 68 44 358 90 75 266 296 251 159 236 270 318 321 314 55 69 108 106 125 154 147 63 75
348 352 353 352 350 349 346 345 342 343 336 337 335 332 330 331 328 326 318 322 323 330 335 343 353 354 56 63 33 25 264 311 308 332 344 333 358 44 40 63 37 79 71 339 33 53 61 231 113 182 121 91 135 139 294 146 250 145 139 169 133 337 350 30 178 346 355 205 161 168 284 159 288 158 289 232 360 342 35 31 13 68 81 48 56 63 72 96
350 352 350 350 345 343 342 339 340 337 333 330 326 326 325 325 324 321 318 313 324 323 341 356 358 36 30 61 89 259 258 22 252 343 350 352 33 42 11 342 356 73 105 41 90 170 155 173 174 121 76 244 139 332 110 235 149 41 141 109 28 342 304 13 36 308 21 289 159 171 265 165 331 92 233 300 333 3 67 34 39 51 49 54 60 62 58 71
351 351 344 341 338 335 331 332 328 325 323 316 317 318 318 315 315 313 315 318 320 326 358 12 47 104 77 66 150 219 230 232 350 343 51 24 8 225 187 278 290 143 107 104 353 230 194 171 137 82 246 184 51 76 56 144 68 245 356 328 302 355 11 7 259 314 40 258 165 173 294 318 351 161 323 315 327 20 60 46 46 55 55 54 58 56 40 27
344 346 342 336 332 330 325 325 322 320 316 308 312 312 311 309 304 305 310 318 329 331 356 2 61 82 78 1 244 236 275 276 355 19 2 26 51 88 139 61 73 108 135 131 269 215 185 142 128 80 212 95 153 99 175 74 340 185 32 93 336 4 343 342 305 311 121 265 124 289 308 280 282 254 313 333 345 2 45 41 42 54 60 63 69 65 57 44
339 335 335 332 332 327 324 323 322 320 314 312 311 310 305 301 298 296 301 286 300 303 5 75 86 63 87 246 275 254 279 100 27 28 353 321 30 316 31 57 73 21 1 141 126 150 115 125 95 117 139 67 81 304 43 337 18 155 259 62 157 13 280 331 84 323 149 120 253 170 227 282 264 332 339 338 340 80 68 50 54 61 64 69 68 69 68 59
329 332 327 324 324 322 319 319 319 318 315 312 309 304 302 300 299 292 297 310 328 282 136 92 48 75 43 273 267 296 246 80 38 330 315 19 16 342 338 340 352 355 315 124 156 138 125 98 81 43 20 240 5 73 2 20 2 13 17 295 317 161 280 295 48 18 167 4 58 90 322 245 280 341 335 338 6 89 78 66 64 73 77 77 80 82 77 71
326 327 320 320 322 321 320 318 318 319 318 315 312 307 303 302 301 309 314 268 352 114 129 108 357 98 91 3 144 25 39 33 329 308 303 63 25 292 290 292 294 3 33 344 63 116 56 84 72 167 173 3 50 82 25 13 341 349 102 266 280 51 269 340 42 334 316 247 357 160 240 313 276 356 347 2 39 86 97 80 80 83 83 84 85 87 87 82
335 330 324 322 323 323 322 322 324 324 320 317 315 307 311 312 326 12 80 61 34 4 58 266 84 94 29 253 303 36 305 281 286 349 338 33 66 244 341 20 12 340 3 63 26 61 359 63 267 18 40 102 141 90 11 358 314 308 29 217 208 203 299 293 311 51 6 88 237 4 214 234 80 350 354 7 32 93 96 99 91 89 86 83 83 84 86 81
332 327 324 326 327 327 327 330 328 325 319 314 312 296 315 351 59 116 43 19 14 86 90 85 118 47 289 18 29 310 330 296 350 300 253 283 72 14 55 20 324 22 39 28 353 84 328 77 36 175 9 4 45 63 124 251 208 284 306 331 316 305 214 248 314 287 16 18 214 312 281 277 341 356 2 355 16 91 96 105 107 94 86 79 83 85 84 84
336 327 325 334 332 333 331 329 326 325 323 314 329 233 344 42 38 80 68 356 29 345 35 324 14 23 237 287 288 296 291 244 303 22 327 5 342 97 41 87 67 25 298 52 261 84 349 82 41 43 276 298 219 168 190 223 159 254 199 218 199 268 266 224 240 294 118 275 284 240 252 338 345 359 352 10 22 88 96 91 85 78 74 80 85 87 85 83
334 331 331 331 330 328 328 330 330 336 345 350 9 21 19 21 5 319 347 35 78 150 183 277 178 270 317 352 328 284 261 360 118 339 315 323 348 355 10 43 350 57 92 225 302 63 319 145 222 225 225 220 235 202 218 201 154 92 100 133 232 238 278 289 283 269 334 338 261 298 64 23 353 355 346 2 49 65 71 82 79 75 81 86 92 91 88 79
338 333 334 336 333 328 330 336 333 339 359 73 46 57 58 252 18 322 323 309 200 73 40 264 177 194 263 279 296 360 14 319 72 334 343 252 120 11 297 15 22 25 6 260 184 325 74 4 266 234 236 223 249 155 111 86 57 234 170 207 285 186 269 247 330 347 303 137 286 46 85 19 357 352 1 12 58 51 55 72 75 80 82 90 98 95 85 91
343 339 339 333 331 331 332 335 332 340 67 71 60 88 106 157 119 212 81 322 329 259 108 275 206 319 318 223 262 157 107 1 349 350 318 21 319 46 310 79 77 290 340 354 16 21 27 225 238 114 137 95 84 103 66 159 177 52 225 214 346 276 249 296 320 335 305 86 266 16 77 20 17 28 30 37 51 52 38 61 74 92 91 96 95 97 98 87
346 341 342 333 334 330 329 327 346 20 29 30 41 70 98 280 353 285 96 128 293 275 22 29 360 337 320 302 324 220 41 39 296 333 345 3 356 68 312 45 23 331 4 21 221 295 324 297 288 278 140 87 51 48 89 55 66 167 350 352 260 245 19 307 300 355 14 150 262 223 59 118 343 66 55 35 46 65 57 64 62 60 88 96 99 106 104 97
346 345 343 339 329 327 332 331 12 44 31 119 94 113 241 29 7 35 61 36 291 313 7 229 145 189 298 359 295 54 58 300 55 323 349 38 50 264 60 76 60 40 21 332 164 174 213 188 171 75 81 145 234 5 80 49 295 323 184 197 269 277 250 177 260 301 281 349 81 108 2 55 24 66 49 24 42 65 33 57 52 47 60 89 91 68 72 94
346 345 344 340 337 337 330 28 40 15 176 54 46 270 355 12 82 147 86 332 20 350 169 28 98 237 253 348 5 357 247 38 236 243 287 45 339 29 359 219 120 269 206 126 82 320 310 285 47 57 47 43 163 323 258 166 298 318 240 201 218 178 284 268 330 8 9 331 350 153 15 301 347 86 99 85 48 46 9 60 46 45 48 73 80 86 78 75
345 346 349 350 343 337 308 47 342 176 75 63 232 51 325 5 52 98 94 71 160 266 358 265 156 325 150 311 12 276 349 350 233 254 103 280 192 117 282 12 78 346 185 157 281 222 214 342 81 190 115 56 64 210 259 135 171 50 275 173 192 145 103 114 343 34 334 91 324 29 188 275 44 233 152 104 75 57 22 49 47 46 52 63 85 90 86 93
349 350 353 351 348 344 58 320 246 151 20 338 22 2 310 359 150 87 23 358 49 310 29 246 60 283 89 293 359 77 52 294 352 7 21 341 30 306 79 281 1 63 104 183 37 244 57 338 29 38 59 61 15 13 206 132 102 265 285 133 108 85 304 290 115 162 229 258 282 101 134 219 308 247 155 125 101 82 60 39 37 51 52 62 76 76 81 81
342 346 348 351 354 24 161 129 34 40 172 294 335 48 327 249 77 45 80 62 324 337 7 312 128 336 53 315 38 86 181 284 39 246 127 300 133 341 69 246 136 289 327 24 268 260 74 342 59 24 67 62 312 217 300 122 181 230 216 206 291 208 244 155 146 182 250 34 291 350 269 294 251 302 77 136 128 172 189 158 68 38 44 62 68 68 71 71
337 336 336 337 40 57 65 103 113 81 266 352 61 34 313 63 84 104 114 106 242 71 200 71 273 29 336 344 29 360 324 14 57 314 327 311 62 204 30 242 148 129 329 154 201 278 322 153 215 160 108 296 247 303 167 158 353 239 136 112 86 72 59 89 98 102 335 64 282 292 206 174 278 161 150 230 168 204 197 196 184 70 44 52 71 72 74 73
331 333 327 334 66 18 358 37 52 246 96 81 46 106 48 54 33 38 15 298 20 309 65 276 56 297 20 25 316 1 23 340 90 305 24 69 318 30 59 103 123 92 208 359 89 205 255 303 189 84 131 228 206 273 159 190 256 162 112 16 19 38 37 32 63 89 62 343 258 238 292 144 302 208 193 163 221 174 158 178 248 24 40 50 63 78 83 88
330 332 332 4 72 201 98 14 287 58 135 93 127 62 72 37 107 101 64 243 32 277 15 27 346 15 27 39 340 334 26 338 341 25 347 4 359 37 5 54 39 53 35 3 38 324 10 18 90 299 59 109 104 17 95 134 78 90 31 13 354 7 9 41 347 39 90 283 257 271 197 150 178 314 192 284 333 191 161 163 166 111 65 62 80 80 82 83
328 331 351 53 143 96 57 289 173 141 130 151 77 61 76 277 7 84 238 329 23 311 65 300 341 41 3 317 79 333 336 329 4 33 33 17 36 30 357 89 343 42 345 3 308 355 32 24 275 339 260 69 14 27 332 11 10 43 44 30 46 292 24 328 14 314 184 202 174 42 129 17 241 209 308 318 322 150 128 138 139 122 101 81 76 78 68 65
329 336 63 78 115 43 77 142 114 141 117 64 71 53 55 89 58 273 290 327 309 9 296 127 263 355 301 8 349 335 271 38 328 75 143 359 98 44 297 67 270 132 360 300 310 8 287 282 355 311 19 24 96 25 316 16 359 12 47 104 65 4 28 259 279 219 300 294 266 34 14 231 167 339 20 320 327 86 112 103 102 108 102 86 73 87 96 73
335 346 150 349 118 122 142 127 150 146 79 43 76 12 44 51 273 149 289 272 284 1 1 357 326 340 52 71 325 355 17 265 32 329 39 340 52 21 331 335 51 357 74 334 40 349 29 343 312 11 30 6 52 146 193 210 354 279 164 124 168 142 224 290 220 280 259 245 288 279 353 235 353 321 333 357 7 61 69 89 97 89 89 79 60 65 67 51
305 47 117 355 42 63 115 147 142 118 80 64 49 81 105 254 226 236 282 304 311 312 294 345 320 26 334 19 326 320 115 306 29 18 14 56 352 50 339 323 335 93 193 73 286 64 230 236 250 307 235 16 62 278 101 86 78 101 170 99 60 251 120 211 214 182 289 328 344 242 174 270 139 341 14 40 57 56 71 86 90 86 75 85 68 63 55 119
335 291 338 25 49 289 123 168 112 89 98 58 72 41 81 187 354 142 256 203 307 350 308 359 53 42 314 307 316 51 304 80 307 63 348 64 205 350 289 219 348 6 27 80 235 328 18 298 295 322 22 94 97 232 347 49 352 270 51 296 227 184 132 1 360 49 57 58 255 153 343 25 140 57 28 30 60 57 77 84 92 106 100 80 67 47 270 242
5 330 99 341 4 288 203 146 118 83 62 87 90 70 200 304 160 187 349 10 280 226 7 57 323 60 336 305 274 339 298 32 298 60 334 176 8 237 317 310 159 16 3 129 324 192 165 273 308 53 20 17 3 117 32 20 148 67 38 245 141 125 118 126 251 328 58 176 269 59 231 305 51 309 180 46 88 126 98 121 132 97 62 59 13 258 247 241
42 47 344 320 268 348 160 175 92 52 75 79 75 154 313 49 347 193 241 13 347 3 70 66 292 78 283 58 310 335 316 69 318 44 279 345 336 129 90 275 4 106 16 315 131 287 103 329 295 347 287 267 13 86 10 356 17 199 221 215 78 301 339 326 86 335 345 298 286 318 279 242 179 241 160 224 189 187 190 183 130 50 18 309 310 279 265 266
61 79 34 258 17 352 179 106 69 68 64 63 7 88 296 232 234 175 220 171 178 163 86 249 232 325 128 182 257 308 336 23 319 10 55 335 53 151 88 181 346 103 345 350 35 299 34 194 297 303 163 317 349 63 332 290 330 30 6 20 358 117 177 49 232 184 118 274 33 293 38 284 199 222 194 204 187 180 170 177 182 198 222 264 284 293 264 263
26 20 316 283 349 21 159 78 61 46 61 90 202 169 227 252 263 267 347 195 301 78 273 106 244 312 349 238 116 323 310 103 346 285 81 289 5 24 55 10 341 316 358 349 127 319 273 122 252 279 290 341 344 11 51 246 327 332 31 336 359 17 224 116 60 141 260 223 234 264 328 284 265 203 196 208 178 168 165 177 193 229 244 258 276 299 291 268
66 98 271 299 340 307 50 46 44 37 92 220 111 167 5 286 336 337 9 20 358 324 165 197 161 163 263 11 347 51 301 354 332 287 206 308 85 328 36 52 183 333 323 29 50 346 58 44 221 317 347 342 244 227 230 208 175 167 149 78 176 29 4 29 283 23 51 86 242 8 284 262 275 54 230 147 149 138 167 157 203 230 255 252 282 297 295 285
84 38 305 337 350 68 79 50 14 124 95 79 43 18 17 37 58 325 4 321 76 295 6 105 65 129 107 223 227 310 350 302 273 17 258 167 302 93 325 29 307 229 44 318 142 264 132 163 69 287 234 268 300 302 303 252 126 139 117 104 129 129 107 124 246 283 4 244 126 166 90 277 276 325 69 116 139 160 174 156 220 253 272 271 268 274 278 286
52 162 257 343 351 82 67 61 288 38 54 265 275 7 317 32 132 233 74 342 2 149 3 54 212 13 203 313 288 318 203 275 175 236 219 260 265 227 301 340 271 360 110 341 18 307 76 61 11 277 300 302 333 337 63 62 101 60 30 56 38 340 181 181 184 188 188 278 289 322 237 252 263 101 108 121 140 151 214 174 279 290 290 291 291 292 293 309
157 290 331 303 21 94 75 108 71 8 322 302 69 199 252 167 71 5 356 324 85 350 59 307 337 124 298 98 139 270 208 344 243 25 341 130 292 106 3 329 314 318 63 283 117 298 19 301 118 318 360 337 342 351 5 336 51 82 327 330 103 96 58 165 101 58 274 225 180 125 247 282 283 129 104 121 128 213 227 278 278 304 304 298 298 301 301 300
111 297 284 309 360 49 103 187 131 146 298 128 34 26 343 14 172 183 163 335 341 147 63 349 212 263 304 158 231 261 286 182 298 356 79 213 247 110 351 77 321 78 71 292 309 308 104 233 72 1 339 345 330 331 306 314 298 292 58 17 345 87 126 4 256 286 118 280 116 158 255 247 255 303 269 250 264 301 319 274 285 275 288 302 306 302 301 311
47 119 313 346 12 40 73 63 101 131 118 131 39 310 110 351 24 314 143 91 162 246 125 240 346 115 32 21 359 352 331 327 178 290 23 312 306 346 250 321 84 269 285 258 16 54 166 321 159 159 155 203 226 245 234 38 340 342 284 315 292 42 52 91 106 93 219 236 275 243 193 316 327 12 233 256 4 344 325 319 307 313 313 304 302 307 317 348
133 76 12 337 342 45 64 19 29 45 100 152 92 326 358 307 269 344 173 26 6 95 334 67 292 27 334 46 343 311 251 307 355 8 270 233 266 255 290 196 300 234 327 90 89 87 69 334 292 194 221 228 249 268 278 27 258 269 289 284 87 24 201 136 165 238 168 65 295 267 288 0 296 331 357 18 3 334 323 324 321 318 321 318 312 321 336 350
70 236 112 194 115 331 26 354 48 67 11 72 116 268 3 350 8 26 316 146 214 259 79 319 44 63 168 249 13 310 323 304 356 253 348 181 335 328 32 6 39 308 342 355 14 102 135 220 284 89 270 238 262 267 294 284 226 241 246 257 305 50 97 161 249 248 209 245 237 304 11 314 304 342 31 9 350 325 317 315 313 306 305 313 326 340 331 325
113 145 145 306 100 246 138 238 76 93 62 63 127 59 8 49 12 223 186 317 23 341 49 18 322 13 312 281 141 270 323 2 323 286 137 322 339 333 353 340 202 13 57 33 2 158 97 256 254 146 289 303 296 309 312 260 282 285 252 1 350 48 265 213 251 248 199 264 286 308 332 299 287 347 19 334 323 323 316 310 309 318 321 334 344 334 336 339
205 117 215 15 87 111 347 33 99 56 56 344 81 339 124 44 330 328 346 121 351 323 353 39 302 327 323 166 189 174 238 201 240 289 227 71 317 130 244 197 285 331 32 64 359 311 92 281 38 298 353 305 309 328 332 325 271 293 3 20 23 139 134 178 208 291 301 309 342 340 320 298 311 228 335 322 328 320 315 327 323 323 331 337 338 347 346 346
153 147 151 111 48 330 5 21 38 77 67 349 63 305 36 305 274 210 269 215 177 283 357 305 298 324 70 110 150 252 250 223 229 224 233 168 255 227 123 295 122 324 355 12 20 316 48 279 60 58 4 304 318 7 319 13 73 95 4 356 4 27 13 335 26 310 55 287 311 329 325 307 334 3 324 303 326 334 332 328 326 328 335 355 339 344 340 340
81 119 83 108 82 331 44 334 14 59 23 264 117 299 138 309 254 12 324 109 234 227 193 185 226 34 300 3 282 240 248 195 227 236 214 229 277 277 226 217 109 350 302 100 231 35 96 99 18 19 4 261 265 346 320 332 55 15 341 300 291 291 219 294 288 259 229 245 329 305 294 72 301 317 331 332 338 327 325 326 327 325 353 18 347 336 336 336